Regional Weather Roundup
Issued by NWS

Home | Current Version | Previous Version | Graphics & Text | Print | Product List | Glossary On
Versions: 1 2 3 4 5 6 7 8 9 10 11 12 13 14 15 16 17 18 19 20 21 22 23 24 25 26 27 28 29 30 31 32 33 34 35 36 37 38 39 40 41 42 43 44 45 46 47 48 49 50
000
ASUS45 KCYS 310410
RWRWY

WYOMING REGIONAL WEATHER ROUNDUP
NATIONAL WEATHER SERVICE CHEYENNE WY
1000 PM MDT THU JUL 30 2015

NOTE:  "FAIR" INDICATES FEW OR NO CLOUDS BELOW 12,000 FEET
WITH NO SIGNIFICANT WEATHER AND/OR OBSTRUCTIONS TO VISIBILITY.

WYZ001-310500-
...YELLOWSTONE NATIONAL PARK...

CITY           SKY/WX    TMP DP  RH WIND       PRES   REMARKS
LK YELLOWSTONE   N/A     51  35  54 W5        30.53R
W YELLOWSTONE  NOT AVBL

$$
WYZ002>013-054>058-071-098>099-310500-
...NORTHERN WYOMING...

CITY           SKY/WX    TMP DP  RH WIND       PRES   REMARKS
JACKSON        CLEAR     64  37  36 NE3       30.41R
CODY           CLEAR     68  37  32 SW3       30.32R
GREYBULL       CLEAR     76  35  22 W5        30.21R
WORLAND        CLEAR     66  32  28 CALM      30.22R
SHERIDAN       CLEAR     62  48  60 S3        30.25R
BUFFALO        CLEAR     66  40  38 W9        30.33R
GILLETTE       CLEAR     60  41  49 MISG      30.27R
HULETT         FAIR      70  41  35 CALM      30.28R
NEWCASTLE      FAIR      72  36  26 CALM      30.27R

$$
WYZ014>020-022>026-101>103-310500-
...CENTRAL WYOMING...

CITY           SKY/WX    TMP DP  RH WIND       PRES   REMARKS
BIG PINEY      CLEAR     59  31  34 N13       30.43R
PINEDALE       MOCLDY    55  32  41 W6        30.45R
DUBOIS         FAIR      61  27  27 E5        30.45R
LANDER         CLEAR     70  31  23 SW15      30.31R
RIVERTON       CLEAR     75  24  15 NE12      30.31R
CASPER         CLEAR     76  35  22 E9        30.32R
DOUGLAS        CLEAR     67  42  40 SE7       30.32R

$$
WYZ021-027>030-104>119-310500-
...SOUTHERN WYOMING...

CITY           SKY/WX    TMP DP  RH WIND       PRES   REMARKS
EVANSTON       PTCLDY    69  22  16 N10       30.44R
KEMMERER       CLEAR     63  25  23 NW9       30.46R
FORT BRIDGER   CLEAR     68  19  15 NW5       30.46R
ROCK SPRINGS   CLEAR     73  16  11 CALM      30.39R
DIXON          FAIR      63  23  21 E8        30.40R
RAWLINS        CLEAR     60  22  23 NW8       30.41R
SARATOGA       FAIR      63  23  22 SW3       30.43R
LARAMIE        CLEAR     65  40  39 E10       30.45R
CHEYENNE       CLEAR     65  43  44 E9        30.40R
TORRINGTON     CLEAR     67  45  45 E7        30.26R
PINE BLUFFS    FAIR      64  54  68 S6        30.35R

$$


USA.gov is the U.S. government's official web portal to all federal, state and local government web resources and services.